Tracking 28126 objects as of 1-Oct-2023
HD Live streaming from Space Station
objects crossing your sky now

EKRAN 7

Track EKRAN 7 now!
EKRAN 7 is classified as:


NORAD ID: 12564
Int'l Code: 1981-061A
Perigee: 35,771.8 km
Apogee: 35,793.4 km
Inclination: 8.9 °
Period: 1,435.5 minutes
Semi major axis: 42153 km
RCS: 3.9811 m2 (large)
Launch date: June 26, 1981
Source: Commonwealth of Independent States (former USSR) (CIS)
Launch site: TYURATAM MISSILE AND SPACE COMPLEX (TTMTR)
Your satellite tracking list
Your tracking list is empty




NASA's NSSDC Master Catalog

Two Line Element Set (TLE):
1 12564U 81061A   23273.08519468 -.00000289  00000-0  00000-0 0  9992
2 12564   8.8660 302.3314 0002560  90.6691  99.3158  1.00311634119575
Source of the keplerian elements: AFSPC